Terug naar catalogus

STARLINK-33826

ActiefCommunicatieVLEO
NORAD 63641·PAYLOAD·🇺🇸 United States

Gelanceerd Apr 25, 2025 vanaf Cape Canaveral Space Force Station

Loading…

Volgende Passages (komende 24 uur)

TLE

VersSource: CelesTrak SupGP

Epoch: Sep 15, 2026, 03:52 UTC

1 63641C 25083H   26258.16159722  .00030906  00000+0  11191-2 0  2584
2 63641  43.0014  15.0320 0001366 263.9745 173.5588 15.27573468    13

Volg STARLINK-33826 in realtime met AllMySat

Download on the App Store